Theta_e
319 319 318 318 318 318 319 319 319 320 320 320 321 321 322 322 323 323 323 322 322 322 321 321 321 321 321 322 322 322 320 316 314 313 311 312 323 328 340 343 345 341 342 330 321 321 318 318 319 324 323 323 325 328 334 336 337 333 323 318 314 318 319 324 325 326 331 328 332 333 337 336 331 336 342 344 340 340 339 335 339 339 339 339 341 343 343 344
318 318 318 318 318 318 318 319 319 319 320 320 320 321 321 322 322 323 322 322 322 322 322 321 321 321 321 322 322 323 319 315 312 313 312 324 331 332 335 338 351 345 342 320 313 315 312 313 318 323 321 319 329 326 333 328 335 326 323 319 315 319 323 330 331 331 330 329 334 336 338 338 335 338 341 335 334 336 332 334 335 335 336 339 341 342 342 342
318 318 318 318 317 318 318 318 319 319 320 320 320 320 321 321 321 321 322 321 321 321 322 322 321 321 322 322 323 323 317 314 313 312 320 341 336 338 343 347 348 342 330 315 313 316 314 316 321 324 322 319 325 323 329 326 328 327 325 318 319 325 328 331 333 333 334 336 336 336 337 338 338 338 339 334 332 335 331 330 332 332 331 334 337 340 341 340
317 317 317 317 317 317 318 318 318 319 319 319 320 320 320 320 321 321 321 321 321 321 321 322 322 322 322 323 323 318 317 313 313 321 325 351 347 344 345 347 347 342 324 314 314 315 318 325 326 326 322 319 323 328 324 327 322 324 321 318 322 327 325 330 338 335 335 337 334 335 336 333 336 337 337 334 330 329 332 334 332 331 332 333 336 338 339 337
317 317 317 317 317 317 317 318 318 318 319 319 319 319 319 320 320 320 321 321 321 321 322 323 324 324 324 324 322 318 312 306 316 324 329 353 352 344 345 347 348 333 317 314 314 312 316 314 319 325 321 317 323 325 325 327 329 324 322 325 325 328 325 335 336 337 335 336 336 336 331 331 340 338 336 335 327 325 332 335 336 335 335 334 335 337 338 335
317 317 317 317 317 317 317 317 318 318 318 319 319 319 319 319 319 319 320 320 321 322 323 325 325 325 325 323 319 317 311 295 314 320 347 351 353 348 346 346 347 326 316 312 309 311 311 312 313 314 317 318 321 320 324 326 329 317 321 324 327 327 328 333 335 336 337 335 334 332 334 336 335 334 336 336 335 339 345 339 338 337 337 337 337 337 336 333
316 316 316 317 317 317 317 317 317 318 318 318 318 318 318 319 319 318 319 320 321 321 323 326 326 326 325 321 318 315 311 312 319 320 347 353 350 348 350 346 343 322 314 309 309 308 309 310 314 313 316 319 321 321 324 324 326 322 317 322 324 328 327 333 332 336 336 335 333 335 338 334 333 329 337 335 338 341 345 341 339 339 338 338 336 336 334 332
316 316 316 316 316 316 317 317 317 317 318 318 318 318 318 318 318 318 319 320 320 322 324 327 327 327 324 317 312 306 310 312 320 323 355 352 346 346 345 336 332 323 315 308 307 307 310 309 310 316 313 316 320 321 324 322 323 319 318 322 323 329 331 332 334 334 335 335 337 337 332 333 333 335 335 334 336 340 342 340 340 339 337 336 335 335 334 333
316 316 316 316 316 316 317 317 317 317 317 317 318 317 318 318 317 318 319 319 320 321 324 327 328 325 323 316 307 305 307 318 324 328 350 346 342 339 330 326 326 320 316 313 309 309 310 310 313 316 312 316 322 320 322 318 313 319 319 322 323 325 330 330 334 334 335 335 336 333 331 335 336 337 331 335 336 340 343 339 339 337 335 335 335 335 334 333
315 316 316 316 316 316 316 317 317 317 317 317 317 317 317 317 317 318 318 319 320 321 324 327 328 325 321 314 310 302 314 316 322 341 340 343 342 333 328 328 325 319 314 313 312 310 309 313 316 320 319 318 320 317 319 317 313 317 315 316 319 322 326 329 331 333 335 334 335 330 329 332 336 332 327 335 338 339 339 338 338 336 334 334 335 336 335 333
315 315 315 316 316 316 316 316 317 316 317 317 316 316 316 316 316 317 318 318 319 321 324 328 326 321 313 312 303 300 319 315 321 338 341 343 338 330 327 329 326 318 314 312 312 313 313 314 317 319 317 315 318 315 315 315 318 315 314 313 311 311 319 326 330 331 333 331 333 331 329 333 334 333 327 333 338 339 335 336 336 336 335 334 335 337 335 334
315 315 315 315 315 316 316 316 316 316 316 316 316 315 316 316 316 316 317 318 319 321 325 328 326 321 315 310 304 305 318 317 315 315 340 342 337 334 334 332 327 320 314 310 312 314 315 315 318 317 309 318 311 315 315 316 314 314 313 306 308 310 309 317 324 330 333 329 333 333 329 326 328 325 332 335 338 338 335 335 335 335 335 335 335 337 335 334
315 315 315 315 315 315 316 316 316 316 316 315 315 315 315 315 315 316 317 318 319 321 324 327 325 320 314 306 311 318 321 321 319 314 314 321 320 332 335 333 328 322 316 312 312 315 316 317 318 314 317 315 314 309 313 318 314 314 311 306 305 305 304 309 319 331 330 331 333 333 314 318 325 330 333 336 336 335 333 332 334 334 335 335 336 336 336 336
315 315 315 315 315 315 315 316 316 315 315 315 314 314 314 314 315 316 318 319 321 322 324 327 324 316 312 309 320 326 318 319 319 316 311 316 313 315 320 329 328 322 317 314 314 316 317 317 317 316 319 316 314 320 316 314 315 306 308 307 300 301 298 308 314 327 325 331 333 330 312 317 324 329 333 336 336 333 330 332 333 334 334 335 336 335 336 336
314 314 314 314 314 315 315 315 314 314 314 314 313 313 313 313 315 318 320 321 322 323 325 327 322 313 310 313 324 327 348 326 316 314 314 311 309 313 313 315 321 319 316 315 315 317 317 318 319 318 316 321 318 313 307 306 307 307 302 295 297 299 298 308 312 315 314 327 332 325 313 317 323 328 332 335 335 333 330 331 332 333 334 334 335 335 336 336
314 314 314 314 314 315 314 314 314 314 314 313 312 312 314 315 317 319 321 322 322 328 326 317 319 314 310 307 316 330 319 311 312 315 311 311 309 307 313 314 316 316 314 314 317 318 319 321 318 318 319 317 312 307 303 301 301 303 301 297 298 299 299 304 309 312 320 326 328 323 312 318 320 328 333 335 334 332 329 329 330 331 332 333 333 334 335 335
314 314 313 314 314 314 315 313 313 314 312 312 312 312 314 317 319 322 323 324 324 325 316 313 319 316 306 318 326 317 310 311 313 310 311 311 311 310 311 314 314 314 315 318 317 317 319 320 322 319 317 309 307 308 301 297 296 296 300 297 299 299 299 299 306 310 312 325 321 324 318 320 324 329 332 334 334 332 329 329 330 330 331 331 332 333 333 333
313 313 313 313 314 314 314 313 313 313 311 311 311 311 310 317 321 322 324 324 322 321 318 320 318 312 307 319 310 309 311 308 309 309 310 309 310 311 308 310 314 313 316 316 321 317 321 315 318 307 308 309 308 303 298 293 296 296 298 297 298 299 300 301 301 307 310 312 317 320 319 321 325 328 330 332 334 332 330 330 330 330 330 330 331 331 332 332
314 313 313 313 314 314 314 313 312 311 311 311 312 314 317 317 313 315 315 318 313 309 307 309 311 301 296 306 311 311 308 308 309 309 308 310 312 311 310 311 312 310 309 310 312 315 319 315 314 308 304 302 304 304 300 302 304 301 301 300 299 297 298 298 304 308 310 308 310 318 316 320 324 326 329 331 333 331 330 331 330 330 331 330 330 331 331 331
313 313 313 313 313 313 313 313 311 310 310 308 306 308 306 300 299 304 308 314 310 306 307 310 316 315 314 314 308 306 308 311 305 306 309 311 310 307 307 307 310 312 309 305 310 312 316 307 304 303 304 305 306 307 306 307 307 306 305 304 301 300 300 303 304 306 308 309 309 317 318 321 323 325 328 330 331 330 330 330 329 331 330 330 330 330 331 331
313 313 313 313 313 313 313 312 311 310 310 307 305 306 298 299 295 293 299 302 304 305 304 304 305 307 307 307 307 305 302 302 306 305 308 315 307 305 301 304 303 303 305 309 310 316 315 304 304 307 308 308 308 308 308 307 307 305 304 302 301 301 299 304 305 308 307 308 307 315 318 320 323 326 328 330 330 328 329 330 329 331 330 330 330 330 331 332
313 313 313 313 312 312 312 311 310 309 309 305 308 305 306 304 305 306 303 296 303 306 305 305 306 304 307 307 308 307 303 301 300 303 311 311 306 300 300 301 301 298 306 309 310 305 305 302 306 309 311 311 310 310 308 306 305 305 303 301 299 300 302 305 305 307 307 305 305 314 317 318 322 326 328 329 329 330 332 332 331 331 330 330 330 330 331 332
313 313 313 313 312 311 310 310 309 308 306 309 307 308 307 308 310 310 306 300 297 304 304 304 302 303 304 306 306 308 300 298 296 302 306 309 303 301 301 298 299 300 307 308 303 300 298 300 306 310 310 309 309 309 308 306 305 303 302 298 297 301 298 295 302 304 304 303 304 312 316 318 322 326 327 330 330 330 333 333 333 333 331 331 331 331 331 331
313 313 313 313 312 311 310 309 308 309 308 308 307 308 313 310 309 307 302 295 294 300 303 305 305 304 302 302 304 302 298 300 300 303 315 307 300 303 301 300 298 300 299 306 305 302 300 303 309 308 308 307 306 307 306 304 301 302 302 300 299 299 300 299 300 303 304 305 305 312 314 315 319 320 323 327 331 331 332 333 332 333 334 334 334 334 333 332
313 313 313 313 311 310 308 307 308 307 308 309 309 311 309 312 310 306 299 294 296 296 306 306 308 307 305 308 308 302 302 302 301 306 312 307 305 303 302 305 303 299 301 305 306 304 303 308 309 306 305 305 304 302 303 303 298 299 301 301 301 302 301 302 302 300 296 296 301 312 303 307 316 320 321 324 327 327 330 330 330 331 332 333 333 332 334 334
313 313 314 312 312 310 308 304 308 306 307 307 310 312 311 311 310 309 300 291 287 296 303 298 304 300 306 302 304 303 301 297 303 306 311 306 312 304 304 296 304 297 302 303 301 301 304 309 308 304 304 304 303 302 304 303 298 296 298 302 302 302 302 302 301 299 291 291 297 304 299 300 314 316 320 322 324 325 328 329 330 331 332 332 333 333 333 333
313 313 313 311 311 308 304 302 306 308 307 309 314 315 313 312 314 306 298 289 286 298 296 300 300 299 304 303 303 302 288 292 303 307 306 313 305 310 298 294 298 302 306 305 301 295 306 305 306 305 303 302 302 300 304 303 298 296 301 303 302 300 300 300 300 298 294 299 301 302 300 297 304 313 320 322 322 323 325 327 328 330 331 332 333 334 333 334
314 313 311 310 308 308 304 305 305 306 308 311 315 315 314 311 310 304 295 284 285 301 297 298 302 305 303 303 303 296 296 300 296 301 307 308 308 302 299 296 296 296 298 297 288 296 300 298 301 301 301 299 298 302 305 305 301 298 303 306 303 303 302 301 299 296 295 295 291 295 301 294 301 313 320 321 319 320 322 325 326 329 331 332 333 334 334 335
312 312 311 310 308 307 308 305 306 306 312 314 314 314 315 312 304 295 288 282 297 298 306 298 306 304 301 303 300 300 300 301 294 300 308 308 309 302 296 297 298 297 299 298 291 296 300 301 301 301 298 294 300 303 305 306 301 304 306 306 305 303 302 301 298 294 296 293 290 295 296 290 288 302 315 318 318 318 321 324 326 328 330 332 333 334 335 335
312 311 311 309 307 309 308 308 305 311 312 314 312 313 313 306 299 293 288 282 299 290 299 299 298 297 300 296 296 300 297 299 301 304 305 302 303 305 304 304 300 297 295 298 296 296 299 306 305 303 300 300 302 302 304 304 306 305 305 303 303 301 299 300 297 295 292 289 289 295 297 293 287 296 313 313 316 321 323 324 327 329 330 332 334 334 335 335
311 310 309 309 303 307 308 303 307 312 312 311 313 311 305 300 295 287 284 289 300 295 300 297 296 300 296 294 290 297 297 298 299 300 295 301 297 300 300 297 298 293 290 290 291 295 298 299 299 301 306 304 304 301 305 306 306 305 300 299 297 295 295 296 292 293 290 283 290 295 296 295 288 289 307 319 322 325 324 323 325 327 329 331 333 334 335 336
309 307 309 306 307 310 305 303 307 310 310 311 311 304 297 289 291 284 286 301 289 292 294 293 297 296 295 296 294 293 293 297 297 297 293 294 292 292 292 292 294 288 287 287 288 295 293 294 298 299 307 303 301 300 300 302 303 301 299 298 293 286 290 285 288 288 286 284 291 296 296 294 291 293 304 318 320 323 326 326 326 328 329 330 333 334 335 337
307 307 307 309 310 307 308 311 311 311 311 312 306 300 292 288 284 288 289 292 289 294 292 299 296 296 295 291 292 297 297 292 296 297 296 295 294 296 299 297 297 292 286 293 290 290 290 296 297 297 301 303 301 294 293 296 295 298 296 292 290 287 286 281 284 285 285 290 295 295 298 292 292 297 301 315 319 322 326 327 329 329 329 330 333 334 335 336
307 307 306 311 311 311 314 315 313 313 313 311 300 296 294 286 287 299 291 291 292 298 298 295 295 296 295 289 292 294 288 295 295 294 295 293 292 292 295 297 297 294 293 291 287 288 283 285 292 296 292 300 299 297 296 294 297 296 296 296 292 290 287 284 284 283 283 286 292 296 293 287 290 293 301 305 312 323 326 328 328 330 331 332 334 335 335 336
307 307 308 311 312 314 314 315 315 317 311 304 296 292 287 286 289 287 288 291 294 296 295 297 294 294 290 292 295 296 293 290 295 294 294 294 290 292 292 292 296 296 295 286 292 292 289 287 294 298 298 298 297 300 300 298 297 298 299 299 294 292 293 288 288 287 289 288 289 291 291 292 294 300 306 305 306 316 325 326 328 328 331 332 332 333 334 335
307 313 316 313 316 318 317 318 316 314 307 297 293 288 285 290 287 292 291 298 296 293 294 293 294 288 288 288 295 294 296 292 294 292 292 293 293 291 295 294 294 295 291 287 291 285 288 285 294 297 299 298 298 300 298 301 290 295 298 294 295 298 298 292 297 297 296 291 288 293 295 296 298 301 303 304 302 304 318 325 326 327 329 330 330 332 333 334
309 312 312 316 318 319 319 317 317 312 304 296 291 289 296 295 296 295 301 295 295 295 292 286 289 288 288 286 288 293 295 294 292 290 287 294 290 293 294 294 297 296 295 291 289 292 285 287 294 294 294 298 300 300 300 302 301 296 292 295 300 302 299 292 286 288 287 284 286 294 292 291 292 290 300 301 302 303 303 319 326 327 328 328 330 331 333 334
307 310 315 317 319 316 319 317 315 307 301 296 291 303 301 293 298 297 298 296 296 295 290 288 291 293 288 288 288 290 293 288 289 291 289 293 287 296 293 292 297 296 296 296 289 291 291 284 290 295 296 297 300 301 298 301 302 297 294 302 296 289 291 291 291 286 285 285 285 290 293 294 293 293 298 299 300 302 303 310 323 325 326 327 329 331 333 334
307 309 308 314 314 313 313 316 307 303 298 293 292 293 298 296 299 296 298 297 298 295 288 291 289 292 291 287 290 292 293 287 290 288 287 290 286 293 293 294 294 297 298 298 292 293 292 285 286 295 294 295 296 296 288 293 299 301 301 297 300 296 294 291 291 289 288 284 288 285 291 290 297 295 299 301 301 302 304 303 320 324 326 328 329 331 332 332
309 306 303 311 313 311 312 311 303 299 296 292 292 293 298 295 297 298 298 298 294 292 292 291 293 288 291 291 292 288 292 291 290 289 289 291 289 295 293 296 293 295 296 298 294 296 291 292 282 289 295 294 288 292 290 292 291 293 294 293 296 297 299 297 296 294 289 286 284 285 286 291 298 307 311 312 312 309 304 304 316 323 326 329 330 331 332 333
310 305 305 312 311 313 308 303 297 296 295 295 298 297 298 297 298 298 299 299 297 299 293 292 291 288 290 289 290 292 290 289 291 289 290 290 290 285 294 294 295 293 295 295 293 293 290 289 285 288 289 288 289 296 296 296 295 293 292 292 294 293 291 288 287 296 294 291 284 287 286 292 303 316 314 315 316 315 313 310 315 322 326 328 330 331 332 332
306 300 300 311 315 312 304 296 297 299 296 294 294 298 298 305 297 297 299 299 298 295 300 295 295 293 291 291 291 290 290 289 290 290 291 288 292 291 294 296 296 296 292 289 290 296 295 293 289 285 287 289 293 296 299 299 300 298 296 294 296 294 293 289 282 288 291 293 296 292 288 293 311 314 315 317 318 318 318 308 314 324 326 329 330 332 333 333
303 301 313 318 318 309 301 296 302 301 295 297 303 301 301 298 297 298 297 298 296 297 295 295 294 292 293 293 292 291 292 289 291 288 291 292 292 294 296 296 297 297 294 291 294 293 302 288 284 286 288 292 294 297 300 299 298 294 294 296 294 291 292 291 290 293 290 292 287 288 289 291 305 308 314 317 319 322 323 321 319 325 327 329 330 331 332 332
304 304 308 316 313 307 297 291 291 293 298 300 299 298 300 298 297 296 295 297 296 294 293 294 295 296 293 294 293 292 294 286 293 292 290 294 290 296 296 296 298 295 294 291 289 294 287 289 286 281 280 283 286 293 295 296 295 291 290 293 294 294 294 294 295 295 292 293 292 288 285 291 301 306 313 316 317 321 322 324 325 325 325 326 327 330 332 333
302 306 307 309 311 304 295 297 294 292 296 297 297 295 297 297 298 297 296 295 297 295 295 293 295 296 295 295 294 295 295 293 291 295 294 295 294 299 298 297 297 295 301 302 303 298 289 289 283 278 276 275 275 279 282 284 287 291 293 292 293 293 292 291 286 289 283 291 292 289 289 296 300 303 306 315 316 319 320 321 323 324 326 328 331 333 333 334
302 293 299 300 303 300 299 302 298 295 294 295 295 295 297 296 297 298 298 296 298 297 296 297 297 297 294 294 292 292 292 295 292 292 292 292 294 297 298 298 299 298 303 305 302 297 290 291 286 283 281 280 281 285 291 293 290 287 289 290 291 293 294 293 293 288 285 289 288 291 295 294 296 299 302 314 316 317 317 318 318 319 320 324 327 329 329 331
304 294 295 291 299 297 295 296 297 297 294 297 290 295 293 295 296 297 300 294 298 297 297 297 296 293 293 293 291 291 293 293 294 293 293 293 295 296 298 297 297 304 305 303 303 294 290 284 289 288 287 286 288 288 289 292 289 290 290 290 291 291 292 291 288 285 291 289 283 293 295 293 295 299 304 312 315 315 316 317 317 318 319 320 323 326 331 327
294 299 301 303 293 288 290 293 297 297 300 299 293 297 294 294 294 292 297 299 298 298 294 295 295 295 294 293 293 288 291 291 291 290 293 294 294 295 294 298 296 302 302 296 302 292 287 284 288 289 287 288 289 290 291 290 290 291 291 291 290 291 291 289 290 291 293 288 286 293 295 294 298 310 315 315 314 313 315 317 317 318 319 319 320 321 323 324
301 302 302 306 296 298 298 300 301 298 297 300 296 296 293 293 292 294 294 295 296 295 296 289 292 294 294 295 293 289 291 286 288 293 292 292 292 292 290 293 296 297 296 293 293 295 288 284 290 290 287 288 289 290 291 289 289 290 290 292 292 292 291 292 292 292 292 291 293 295 296 295 307 312 316 318 317 313 314 319 318 317 317 317 317 318 320 321
298 298 297 304 303 299 299 299 298 297 294 300 292 294 296 294 292 294 297 295 291 293 297 292 292 294 294 294 294 290 293 294 293 290 294 293 291 293 291 294 290 295 296 293 294 293 288 287 294 290 286 286 289 291 290 290 289 288 290 292 292 293 293 293 293 293 295 294 297 295 294 299 311 314 318 321 317 316 313 314 316 316 317 317 316 316 317 319
305 306 306 299 296 299 300 298 296 294 292 293 291 295 297 295 294 296 296 299 295 294 295 292 294 294 295 295 295 294 296 296 296 295 295 295 289 296 291 292 296 291 293 292 294 296 292 286 292 289 283 283 288 289 289 290 289 288 288 290 291 292 292 296 294 296 297 295 294 295 294 300 309 313 315 316 314 314 310 312 314 315 316 317 316 315 316 317
306 308 308 301 293 305 294 298 296 293 290 294 299 295 295 295 297 296 292 298 298 298 297 296 296 293 293 293 293 295 298 298 298 298 297 297 297 297 296 296 296 294 291 291 293 289 290 287 285 284 281 282 287 289 288 288 286 283 285 289 292 293 297 298 299 304 305 303 295 298 297 306 309 314 310 310 311 312 311 312 314 313 314 316 316 314 315 316
Wind_Speed
21 21 21 21 22 22 21 20 20 20 21 21 21 19 19 19 19 18 17 15 15 15 15 14 12 11 11 10 9 9 5 3 4 2 4 11 8 10 9 6 9 14 12 2 2 6 3 3 4 3 3 2 3 6 8 8 5 3 4 2 3 4 2 3 2 4 3 5 5 5 3 4 8 4 4 4 3 5 6 3 2 8 9 11 16 17 18 16
21 21 22 21 21 21 21 21 21 21 22 21 21 20 19 19 19 19 17 16 15 14 14 13 12 10 10 9 8 7 4 3 4 6 15 6 9 12 11 8 4 12 11 2 5 6 6 5 5 4 4 3 3 5 4 4 8 6 2 3 6 3 5 3 3 5 7 2 6 5 5 2 5 6 3 5 3 7 6 9 10 11 12 15 18 19 17 17
22 22 22 22 22 21 22 22 22 22 21 21 20 19 20 19 19 19 18 17 15 14 12 12 10 9 8 8 7 4 2 3 4 4 8 15 14 11 10 6 5 12 10 4 4 6 7 8 6 6 5 4 4 6 5 4 4 7 4 4 6 7 3 3 10 8 6 10 8 8 5 2 5 5 3 3 8 7 10 13 13 13 16 19 19 19 18 17
22 22 22 22 22 22 21 22 23 23 22 21 20 20 19 18 18 18 18 17 16 14 12 11 9 8 8 6 5 1 1 3 2 1 4 7 14 15 11 9 9 11 5 2 3 4 3 3 7 7 4 6 5 6 6 7 3 3 4 5 6 6 3 5 8 9 7 12 10 6 7 4 6 6 7 7 11 7 11 14 19 20 21 22 21 20 20 17
23 23 23 23 23 21 22 23 23 23 21 21 21 19 19 18 18 17 18 17 16 14 11 10 9 8 6 4 2 1 1 2 1 2 2 5 13 17 15 11 11 6 8 3 1 3 0 1 1 7 5 5 6 5 9 9 7 2 8 11 11 2 4 1 9 11 9 8 10 7 10 7 5 2 6 10 10 11 10 15 14 21 21 23 23 20 18 17
23 24 23 23 22 22 24 23 22 22 22 21 20 20 19 18 18 17 17 17 16 14 12 10 8 7 6 1 1 2 0 2 1 3 6 7 8 13 15 14 13 7 4 3 4 2 3 4 2 2 4 4 6 7 4 10 7 7 6 8 11 7 4 8 12 11 12 10 10 9 6 6 6 3 8 9 7 4 2 16 17 19 20 18 18 20 17 19
24 24 24 24 23 24 23 23 22 22 21 21 21 20 19 19 17 16 16 16 15 14 12 10 7 7 3 1 1 1 1 5 3 7 7 6 5 11 13 13 12 6 5 4 3 4 6 3 4 6 5 6 9 9 11 6 7 9 8 4 8 9 13 9 15 14 10 13 11 8 9 6 8 5 5 7 3 3 1 21 19 17 17 19 18 18 16 19
25 25 25 25 23 24 23 23 23 21 21 20 19 19 20 19 17 17 16 16 14 13 12 9 6 5 2 2 1 1 1 4 9 4 8 10 10 12 13 6 6 5 6 7 7 7 4 7 8 4 5 7 3 8 6 8 8 9 10 11 9 7 11 8 16 13 11 9 10 10 10 8 12 6 6 5 7 7 2 19 19 17 17 17 17 16 16 16
25 25 26 26 24 26 25 24 22 21 21 20 20 19 19 19 17 16 15 15 15 13 11 9 6 1 0 0 1 2 2 6 4 6 10 9 9 9 11 6 5 7 6 6 6 5 5 6 7 6 6 10 10 9 7 4 6 8 12 10 9 6 6 6 16 14 11 6 9 10 8 7 7 4 7 7 9 8 6 18 19 19 18 17 17 13 16 15
26 26 26 26 25 27 27 25 25 23 22 21 20 19 19 18 17 15 15 14 14 13 11 8 4 1 1 0 0 1 2 6 2 9 10 11 10 10 7 5 9 7 5 6 5 7 10 7 10 6 7 11 8 7 3 5 6 4 5 4 6 7 7 6 13 11 13 11 12 11 9 8 7 5 3 8 11 10 10 19 19 19 19 17 16 11 16 16
26 26 27 27 28 29 28 27 25 25 24 21 20 20 20 19 18 17 14 14 14 13 11 7 1 1 1 1 1 2 6 4 4 7 11 11 12 10 9 8 10 8 7 5 10 11 11 9 4 4 4 5 2 5 4 4 4 7 8 9 6 5 5 7 13 15 12 8 14 12 9 7 5 2 5 9 17 13 16 19 19 18 17 17 18 10 14 14
26 26 27 28 29 28 29 28 28 27 25 24 22 18 21 21 19 17 15 13 12 12 8 4 2 1 1 0 2 7 3 2 1 7 10 11 8 11 10 11 12 10 10 7 9 10 11 9 3 3 4 6 3 4 7 4 4 6 9 7 5 3 4 5 11 13 14 8 11 7 9 3 6 7 4 11 17 16 20 20 19 18 16 16 17 10 13 13
26 27 27 28 28 28 28 28 28 28 26 25 24 21 22 21 21 18 14 12 8 8 7 4 1 2 0 1 9 9 6 7 5 3 4 9 3 6 9 12 14 10 12 9 7 10 10 8 3 5 8 5 7 6 5 7 5 8 6 2 3 3 4 5 4 14 12 10 16 11 4 6 9 9 5 12 16 17 19 18 17 15 16 16 13 11 12 14
27 27 27 28 27 26 29 28 28 27 26 25 24 22 22 23 20 17 13 11 12 9 8 6 1 1 1 5 5 2 5 4 8 1 3 5 1 4 6 7 11 10 7 8 6 2 3 3 6 10 7 9 7 4 9 5 3 3 6 3 2 0 3 2 3 17 12 12 20 13 5 7 10 11 9 14 16 17 20 19 17 16 16 16 12 13 14 15
26 27 28 28 27 28 28 28 28 26 27 26 26 26 25 24 20 16 13 8 7 8 5 4 1 1 0 7 7 7 11 5 1 4 4 4 3 1 4 5 9 9 10 9 3 3 4 6 6 6 6 4 3 3 4 3 2 2 3 5 4 4 4 5 4 10 9 7 19 8 4 9 14 14 12 17 15 18 19 19 18 17 16 17 13 14 15 14
23 26 28 28 28 28 26 25 24 25 25 26 29 30 28 23 17 13 9 8 4 7 5 1 2 1 1 7 3 8 2 2 3 6 3 3 3 2 5 5 6 9 6 5 7 4 4 4 5 4 7 4 3 1 4 5 5 1 3 3 5 1 5 3 6 6 11 13 10 11 5 5 7 13 17 16 15 17 18 19 18 18 19 18 15 14 14 13
23 24 26 28 28 28 27 24 24 24 25 24 29 30 27 17 10 10 3 4 4 3 2 1 2 2 1 1 4 4 3 4 3 0 1 3 2 2 1 2 1 4 7 3 4 4 3 4 1 3 3 2 2 1 2 4 5 4 1 2 4 3 2 3 5 4 6 17 11 11 6 8 10 17 17 17 17 16 16 18 18 17 18 16 16 15 15 14
23 24 26 28 28 28 25 23 23 24 25 25 24 24 21 20 11 5 8 3 2 3 3 2 1 1 5 4 1 1 1 1 1 3 1 2 3 1 1 0 1 4 2 2 1 3 2 2 2 3 1 4 1 2 6 5 4 2 2 4 6 2 3 8 3 3 6 10 14 13 7 6 15 17 18 18 19 16 17 15 19 17 17 14 15 16 16 14
27 26 26 26 26 27 26 22 21 22 24 26 20 19 18 6 2 1 3 3 1 1 1 0 1 1 2 4 7 5 3 5 2 1 1 1 1 1 1 1 1 4 3 2 2 3 0 3 3 1 3 4 7 6 5 1 2 3 4 5 2 5 7 6 8 8 2 7 9 13 9 11 16 16 16 16 19 17 16 14 13 16 16 14 14 15 15 13
28 27 27 24 24 25 25 23 21 20 20 19 14 11 5 6 4 1 1 2 2 4 6 4 5 6 11 10 7 3 4 1 3 4 1 1 2 2 0 2 1 4 5 5 1 4 2 4 4 6 6 4 4 6 4 4 7 9 7 5 5 6 8 7 9 6 3 5 11 14 10 15 17 19 18 19 17 15 14 16 14 14 15 14 15 15 16 15
24 25 25 23 24 25 25 26 23 20 19 7 6 3 3 3 3 3 7 9 6 6 7 10 7 7 9 7 10 5 3 3 1 1 3 2 5 3 2 1 2 1 3 6 6 1 4 4 6 7 7 5 5 4 5 6 8 10 9 6 8 7 10 10 11 9 2 4 7 13 13 17 19 19 19 17 18 18 18 17 17 16 16 15 17 17 16 14
25 26 25 23 24 24 25 25 25 22 15 1 1 2 4 1 2 3 0 6 9 6 8 11 7 7 7 11 12 4 4 1 3 3 1 2 2 3 2 1 2 2 4 2 3 1 4 7 7 8 6 5 6 7 5 8 11 9 8 7 7 9 8 14 13 9 6 7 9 12 16 16 20 20 19 21 22 18 20 22 22 20 18 16 16 17 15 13
26 25 25 26 25 26 26 26 25 23 1 2 4 3 3 3 2 3 2 3 7 6 5 4 3 5 7 7 2 1 2 2 2 2 3 2 2 1 4 2 5 3 3 4 4 3 2 5 9 8 6 7 8 8 9 7 7 7 7 6 9 9 5 8 4 2 6 4 3 12 15 14 16 16 20 20 20 16 19 20 20 19 20 18 20 18 16 16
26 26 24 24 25 25 27 25 26 4 1 6 6 5 6 3 3 4 1 1 4 6 4 4 2 4 5 2 2 3 4 1 2 2 2 3 4 2 2 5 4 2 4 5 7 7 7 6 10 10 9 10 10 8 8 6 7 6 8 8 8 10 10 8 10 8 9 10 8 11 6 4 9 13 13 14 13 14 16 16 14 14 16 15 14 16 17 19
24 24 24 23 23 25 26 23 5 3 8 6 4 3 2 1 3 3 2 3 1 6 3 2 3 3 2 3 0 1 0 2 4 3 2 4 1 2 1 1 2 5 5 7 8 7 7 11 7 5 8 7 7 7 8 6 6 6 8 10 11 12 12 12 9 6 5 8 6 10 4 5 8 16 19 14 11 14 15 17 17 16 14 13 14 16 17 17
23 22 21 20 21 22 27 4 1 8 9 2 1 7 5 4 3 3 3 1 3 2 0 2 1 2 1 2 2 1 3 1 3 1 3 4 3 2 0 1 0 2 4 3 6 4 7 9 7 7 9 10 8 8 10 5 6 5 6 7 12 12 12 12 11 3 4 3 4 4 4 3 5 12 15 16 18 18 13 18 18 16 15 16 16 16 17 18
22 22 19 18 16 16 9 2 4 8 2 2 5 8 7 8 3 4 2 2 2 0 1 1 1 1 1 0 1 3 1 2 4 0 1 2 2 0 2 3 2 1 0 1 1 4 3 8 10 10 7 8 8 8 9 8 7 7 5 7 7 7 8 10 8 5 8 3 1 3 5 5 6 9 9 15 18 17 17 17 16 16 17 17 16 17 17 18
23 20 19 18 15 6 5 5 8 5 4 4 6 8 9 6 4 4 1 2 0 1 0 1 0 2 2 1 3 2 3 2 2 1 1 2 6 2 3 2 2 4 3 2 1 7 3 4 4 4 2 3 7 7 10 10 6 6 8 11 10 9 10 7 5 7 6 4 7 1 0 3 4 13 16 14 14 13 17 17 18 19 19 19 18 17 19 20
22 20 19 17 16 20 5 5 1 5 5 4 7 8 7 6 2 1 2 3 1 0 2 1 3 0 2 1 0 2 1 2 2 1 1 2 1 4 0 4 2 2 2 3 3 5 3 1 2 2 3 5 5 6 11 12 9 9 12 8 6 5 4 1 1 3 3 3 9 3 3 2 3 4 10 9 12 15 17 19 20 20 21 20 18 16 17 17
21 22 20 16 12 2 3 2 6 9 7 8 9 8 8 2 2 1 1 2 1 1 2 1 1 1 1 1 1 1 1 1 3 1 0 1 2 2 0 1 1 1 3 1 2 6 7 4 6 2 1 2 2 4 6 7 13 4 4 6 9 5 4 2 5 2 2 3 7 1 3 4 2 4 13 13 14 17 16 13 14 15 15 16 16 17 16 17
23 22 17 11 3 3 2 3 9 7 7 5 7 7 2 2 1 1 3 1 0 1 1 0 1 1 2 2 1 2 1 1 1 2 2 2 3 4 4 2 6 2 3 4 3 6 9 6 1 1 3 4 2 7 6 5 7 9 3 5 6 7 2 3 2 4 2 4 6 2 2 3 1 3 5 15 19 23 20 20 20 19 19 18 17 16 17 18
24 22 18 7 6 2 3 2 2 3 6 7 7 3 2 1 2 4 2 0 1 1 1 1 2 1 2 2 5 2 1 1 1 2 1 1 5 6 5 3 2 0 3 2 3 6 5 4 2 4 3 4 6 6 8 3 1 5 2 0 3 2 0 4 2 3 3 4 5 1 4 2 2 7 7 14 10 15 19 20 22 22 21 19 19 19 18 18
24 22 20 5 7 3 7 10 7 7 7 7 4 2 4 2 3 4 1 5 1 0 2 1 1 2 1 4 3 0 1 2 2 2 3 3 7 7 10 9 6 1 1 1 1 8 6 4 6 5 2 6 8 9 8 9 5 1 4 4 2 1 1 2 2 1 3 7 9 2 2 3 4 7 8 13 15 12 14 13 17 23 23 22 22 20 18 18
24 20 8 4 8 8 5 4 6 2 5 5 3 6 2 5 2 2 4 4 2 3 3 4 6 3 3 2 1 0 5 4 3 1 4 5 7 5 7 11 12 6 3 2 6 2 3 4 3 7 3 7 5 3 2 6 9 7 3 6 6 4 3 2 2 3 5 6 8 2 1 4 3 4 6 14 14 17 17 16 12 15 20 23 23 22 22 19
25 14 6 3 4 8 13 10 6 1 2 4 6 4 4 2 2 4 4 3 2 4 8 8 1 0 4 1 0 3 2 1 2 7 10 9 5 6 7 7 11 5 1 4 2 1 1 5 4 5 3 3 9 8 5 8 6 3 2 7 4 5 4 3 5 3 2 1 5 2 2 5 5 4 6 8 10 14 18 18 15 16 16 14 11 13 14 16
13 6 2 3 2 4 7 6 3 2 4 6 6 5 6 2 1 2 2 3 2 3 7 5 7 4 3 1 1 4 6 3 2 4 4 10 9 7 6 4 6 8 5 4 1 3 3 3 3 10 4 7 11 12 7 6 4 7 2 2 6 6 3 1 2 1 2 1 7 3 4 5 7 8 10 8 4 8 15 20 19 18 18 15 14 16 16 16
7 8 5 4 2 4 4 4 4 5 4 4 3 2 0 1 2 1 4 4 3 4 3 5 5 5 3 5 2 2 0 2 3 2 1 1 7 11 6 5 8 8 6 3 1 1 1 9 4 4 9 5 14 9 1 7 6 3 4 9 11 2 4 3 3 1 2 4 5 3 4 6 3 6 7 7 11 7 11 17 20 21 20 19 17 17 18 19
7 4 4 5 6 5 3 4 6 3 2 3 2 1 2 3 3 2 2 4 3 5 4 3 1 6 4 6 8 7 6 4 5 3 2 4 3 4 5 4 8 9 11 3 3 2 1 6 2 4 3 9 12 11 9 11 11 6 3 9 8 2 1 3 2 1 2 1 1 3 2 3 3 7 5 9 9 13 9 16 21 21 18 20 19 21 21 21
2 1 3 4 1 4 3 7 3 4 2 3 2 3 2 3 0 2 2 2 1 1 5 3 2 3 3 5 3 6 10 3 3 4 3 3 5 6 3 4 4 9 11 9 6 5 3 1 6 2 10 7 4 7 6 12 19 15 11 11 6 3 2 2 3 2 5 2 0 4 2 2 3 2 6 13 10 12 16 7 19 22 21 20 19 20 21 20
3 2 2 3 1 3 4 4 3 3 2 1 1 2 1 2 2 2 7 7 3 3 2 3 6 4 5 4 7 3 4 7 8 4 5 3 4 2 6 5 2 7 6 9 6 6 2 2 5 5 5 5 5 4 5 8 9 12 11 9 10 5 5 4 3 1 2 3 3 2 2 2 5 8 10 14 13 13 13 14 10 17 21 22 22 22 20 21
3 1 4 4 3 2 5 4 1 0 1 3 0 2 4 3 5 7 10 11 4 2 4 4 4 6 3 6 9 6 3 4 6 5 3 2 2 1 5 3 4 4 3 8 10 7 2 3 2 8 12 5 4 4 5 7 3 4 1 8 7 10 13 9 9 5 2 1 3 2 8 4 6 10 13 15 18 17 14 17 9 15 18 20 21 23 22 20
2 3 2 4 9 3 3 4 1 2 1 2 1 1 2 7 6 9 11 10 9 6 7 3 5 4 4 5 2 4 3 6 6 5 4 4 3 3 3 7 5 3 5 2 1 2 0 0 2 6 3 11 6 7 7 3 1 8 10 9 10 6 6 4 4 7 6 4 2 3 3 2 2 11 14 16 17 18 16 6 10 14 19 20 21 20 19 19
5 3 8 9 7 2 2 2 4 3 2 2 1 7 5 5 4 7 10 10 6 7 4 4 5 2 5 3 5 5 7 5 7 5 2 3 6 4 2 6 4 4 4 3 2 5 5 3 6 6 7 6 5 5 6 13 9 9 9 9 11 10 9 7 7 2 3 8 6 6 3 2 6 13 15 18 17 17 17 15 3 2 8 17 18 18 17 15
2 3 7 7 8 4 6 3 4 6 5 6 8 6 7 7 7 6 7 8 4 3 4 4 6 7 3 5 6 8 11 3 8 8 4 5 4 4 8 5 3 3 2 1 2 6 2 2 2 4 6 9 7 7 8 8 10 5 5 8 9 10 10 10 5 3 1 5 6 2 2 5 11 13 12 18 19 21 22 21 19 14 9 12 11 8 1 11
3 3 5 7 6 7 6 1 2 4 7 6 7 11 7 3 3 4 5 7 4 3 2 4 4 6 7 5 8 9 10 8 2 8 4 6 4 5 9 10 4 3 4 6 8 1 6 1 3 3 2 3 5 6 8 12 12 9 3 11 9 11 15 11 6 8 3 3 4 1 4 9 12 11 10 17 18 18 20 19 21 20 18 14 11 11 13 15
4 2 4 6 6 7 4 1 4 4 5 5 7 5 7 2 3 6 6 6 6 5 7 6 8 6 10 9 8 9 8 7 6 1 3 3 3 4 6 8 7 3 8 11 5 1 1 1 2 2 3 3 5 3 5 8 9 9 12 8 11 11 10 5 0 3 4 7 5 3 2 12 17 19 11 14 16 18 20 21 21 20 19 17 13 14 16 14
0 3 3 5 7 6 5 4 4 5 3 2 4 4 10 10 6 3 13 2 8 5 4 11 10 10 8 9 5 5 6 6 7 6 6 3 3 4 8 9 7 12 11 6 5 2 2 3 1 0 3 5 5 3 4 6 10 12 12 11 10 10 11 9 3 6 4 8 7 4 4 9 15 14 11 9 14 13 15 16 20 19 19 16 14 15 19 18
3 2 2 1 1 3 6 5 6 8 8 7 5 4 8 9 9 6 5 8 7 12 4 5 13 11 11 7 3 4 7 4 7 6 5 4 2 6 6 10 3 9 9 2 3 3 2 1 2 4 5 3 4 7 6 6 6 10 13 12 11 10 11 9 5 8 4 3 8 10 8 9 10 8 7 6 10 11 13 15 16 16 15 16 18 19 18 18
2 2 1 4 3 3 1 2 8 10 10 6 2 6 7 7 7 4 3 3 6 6 9 5 9 9 9 10 7 5 7 4 5 3 5 6 6 3 4 5 4 8 8 5 5 2 2 0 2 3 5 7 7 7 7 7 6 8 10 14 12 11 11 12 10 10 8 6 11 10 6 10 5 8 5 5 7 9 9 9 14 15 17 17 17 17 18 17
4 2 5 5 0 2 5 7 3 8 7 5 3 5 2 4 7 5 5 6 3 5 4 9 7 7 8 9 7 6 3 2 2 4 4 5 8 4 4 0 3 7 9 4 3 2 2 2 6 4 4 4 5 7 9 9 9 9 8 11 12 11 11 12 11 9 9 5 3 8 5 6 3 4 3 3 5 7 12 17 14 14 14 15 17 16 16 16
2 0 1 2 5 5 3 4 4 6 5 6 5 3 4 8 3 3 5 4 6 4 4 5 5 6 6 7 7 6 5 4 4 4 4 3 3 1 2 3 7 7 7 5 2 2 1 2 1 0 1 4 2 6 7 10 10 9 6 8 11 8 8 10 8 7 6 7 10 5 5 4 7 8 5 7 7 11 12 12 13 11 13 17 16 14 15 15
1 2 0 2 3 4 3 2 4 5 7 3 3 3 4 6 4 4 3 4 5 5 5 5 5 6 4 7 7 6 5 6 7 6 4 4 4 5 4 3 2 2 3 3 1 4 2 1 0 1 1 3 2 5 9 9 10 9 4 4 5 7 7 9 9 5 5 4 5 1 6 3 4 5 5 7 8 10 12 11 10 12 13 12 13 13 14 14
Wind_Direction
351 350 349 348 346 345 343 343 341 340 340 338 338 335 331 329 327 327 326 324 325 321 322 323 319 317 314 311 314 312 329 315 314 250 211 240 186 217 167 229 201 204 215 150 140 131 178 206 224 214 218 185 226 239 241 230 217 160 227 193 257 232 230 244 174 181 146 138 158 164 164 135 128 145 118 111 131 71 41 44 247 115 125 137 139 147 154 155
350 349 348 347 345 343 342 339 338 339 340 338 338 334 331 329 327 326 323 326 326 325 325 325 321 317 314 314 312 316 330 281 268 251 231 218 190 206 231 261 169 184 173 202 166 168 154 194 212 191 204 210 224 255 174 217 187 192 202 157 239 196 232 168 138 139 129 187 147 155 157 170 114 145 153 138 181 108 128 197 158 129 124 129 143 154 159 156
348 347 346 345 344 342 339 338 336 337 336 337 335 332 331 329 326 325 323 325 329 328 326 326 319 321 318 313 314 324 334 298 243 262 271 224 217 204 203 208 152 157 172 166 193 175 181 181 186 183 196 253 219 245 236 251 195 196 131 212 241 217 233 143 148 174 185 137 143 151 161 137 137 128 113 150 140 109 198 159 144 144 141 147 151 159 159 158
345 345 344 343 341 340 337 335 335 334 335 333 332 334 329 325 324 323 322 323 327 328 329 329 321 321 319 314 309 359 278 291 32 294 244 178 191 205 195 196 176 172 180 239 162 188 227 209 194 190 180 219 249 246 258 233 235 188 172 207 234 213 220 245 152 166 155 145 148 154 131 176 182 142 159 139 108 183 241 171 158 154 153 153 157 161 164 156
343 343 342 340 339 337 336 335 333 333 330 330 333 329 329 324 322 321 321 321 325 327 327 331 324 316 312 294 268 214 299 44 236 240 212 173 183 195 190 184 179 171 175 157 156 279 326 346 269 209 210 214 240 251 241 245 228 280 215 222 231 143 207 226 142 155 153 139 135 143 145 203 116 82 200 167 167 188 197 163 163 150 156 157 160 164 166 152
342 340 339 338 336 335 335 333 332 330 327 328 328 329 327 323 325 323 318 319 323 326 324 336 321 313 319 103 315 245 66 97 254 233 191 191 178 182 177 172 177 170 150 135 162 162 173 233 178 211 207 229 229 215 226 219 217 241 256 236 231 215 208 133 162 162 148 143 142 159 166 121 145 187 207 187 204 190 280 148 156 156 156 155 156 160 167 149
340 338 336 336 334 334 333 331 327 328 326 326 328 327 323 328 324 321 317 318 321 324 320 330 323 312 332 101 220 291 59 270 288 250 179 148 141 147 152 161 169 151 150 147 183 170 190 199 190 220 227 227 245 236 249 249 209 234 256 259 246 204 214 165 161 161 159 147 167 160 122 150 156 200 193 183 194 138 220 143 154 155 154 155 161 169 165 150
339 337 335 334 333 331 329 327 327 326 326 324 320 324 326 324 322 320 316 316 319 319 320 320 322 316 317 193 356 298 110 256 241 233 154 126 123 136 138 135 157 149 151 187 167 194 155 193 210 214 249 224 200 207 237 236 246 237 245 250 260 202 207 156 151 160 160 162 140 133 147 179 176 170 162 197 150 161 183 143 150 154 158 162 163 169 163 151
338 336 334 332 331 330 327 328 326 324 325 323 323 322 324 322 317 315 316 314 316 318 312 312 325 324 109 219 198 354 236 234 224 144 120 129 132 129 133 148 168 161 185 183 194 182 166 220 221 208 217 221 240 252 243 241 271 236 244 244 242 241 215 147 150 153 148 135 151 140 178 166 183 114 189 163 160 161 155 143 149 156 161 169 169 170 162 159
337 335 333 331 329 329 328 327 327 325 325 324 323 322 321 319 314 313 311 309 310 313 305 299 318 304 252 304 292 63 255 191 172 138 143 138 137 142 165 142 160 170 170 201 181 194 199 202 198 190 246 281 265 256 277 221 251 286 285 248 241 242 235 178 151 155 150 158 168 157 175 171 169 175 220 198 163 157 165 149 153 159 166 170 172 172 164 162
336 334 332 331 330 330 329 328 326 326 326 326 324 321 318 316 312 306 307 304 303 305 299 300 176 258 312 278 98 211 259 66 178 139 153 144 140 146 181 161 170 171 189 180 199 201 220 234 244 341 313 241 277 270 228 228 267 269 272 284 274 255 218 197 154 161 140 162 179 160 169 118 122 312 232 168 159 167 165 156 159 163 165 170 175 171 160 164
335 334 332 331 331 330 329 328 327 327 327 326 324 317 316 314 308 305 303 298 293 291 289 294 249 263 251 46 177 227 265 203 21 149 161 149 168 181 173 168 172 180 180 191 208 207 221 236 244 248 250 357 279 313 275 291 308 301 298 283 277 284 286 180 170 177 153 157 183 142 87 128 156 220 216 150 148 170 156 158 160 162 165 171 178 163 160 164
334 333 332 331 330 329 327 327 327 326 326 325 324 318 314 310 305 300 302 295 272 270 267 272 203 232 55 348 228 240 287 283 292 196 162 188 190 175 166 173 176 185 186 192 205 213 214 224 238 251 242 260 264 267 293 316 320 329 325 254 295 359 307 238 169 164 157 162 164 145 119 236 212 220 215 154 154 153 151 157 162 163 166 173 178 167 160 166
335 332 333 331 329 328 328 328 327 326 324 324 322 316 312 305 301 300 295 276 276 263 249 242 212 277 159 244 270 242 265 268 248 201 219 240 155 207 180 184 178 188 192 206 239 224 246 232 237 247 261 258 273 325 304 317 307 283 292 329 235 100 263 270 168 157 180 172 166 170 142 221 212 214 207 167 167 150 159 160 163 166 167 176 179 173 169 173
334 333 332 330 328 327 328 328 327 324 324 324 321 316 309 304 300 296 288 276 253 236 221 181 197 124 40 267 263 269 258 223 286 235 235 181 166 138 232 179 181 184 200 207 219 243 246 260 262 257 258 212 263 342 320 326 327 282 0 315 325 172 275 285 243 169 163 205 181 163 109 192 201 202 191 170 170 160 160 165 167 169 173 176 180 177 173 174
335 332 332 330 328 327 325 328 325 322 324 324 321 314 308 300 298 286 272 244 230 138 151 140 178 207 346 294 273 318 313 196 250 226 223 166 158 210 208 217 175 193 191 226 221 232 242 268 275 260 264 276 288 326 341 2 328 359 163 281 294 181 245 324 269 225 156 165 202 194 182 154 189 185 168 171 168 164 162 167 169 172 174 178 180 179 177 172
333 333 331 330 328 325 324 327 325 323 323 323 320 311 306 294 293 295 264 168 176 170 181 109 117 179 30 238 295 305 250 215 229 21 255 195 178 182 110 167 264 186 186 230 219 231 242 241 323 273 205 179 174 163 295 302 291 308 351 220 226 217 251 239 289 277 167 156 198 222 145 190 156 161 164 169 169 167 168 171 169 170 174 176 176 179 179 176
333 332 331 330 327 324 322 326 326 325 324 321 320 301 296 301 320 115 70 106 156 155 222 256 252 356 287 310 54 307 298 97 334 252 245 204 167 106 126 121 212 195 144 267 238 231 161 246 200 211 324 200 188 160 164 221 197 248 314 292 292 307 214 230 221 252 183 192 181 205 161 164 156 162 166 170 172 173 173 172 170 173 175 174 172 179 179 178
333 332 331 329 325 322 322 323 329 329 326 321 308 292 272 264 268 255 108 138 104 15 18 260 127 121 154 292 289 303 292 202 214 138 273 281 271 165 102 162 171 142 166 134 290 197 240 254 353 1 258 209 214 200 182 225 254 224 229 242 274 286 279 251 253 267 186 195 196 182 173 164 163 165 170 169 173 175 175 174 166 174 178 178 175 179 182 178
332 331 329 326 324 322 320 323 329 329 335 334 352 351 3 16 4 338 327 117 157 207 252 244 207 279 299 283 278 261 272 33 81 248 158 246 107 27 340 90 34 164 110 178 242 214 142 206 211 219 229 219 242 223 194 230 280 293 291 292 279 283 278 270 271 259 220 201 197 194 168 162 170 171 175 175 171 172 170 175 174 173 178 178 181 179 182 181
329 330 327 325 326 322 322 324 328 327 328 306 293 355 27 357 19 322 326 288 252 241 241 255 237 245 262 284 288 306 17 319 79 278 204 120 112 96 313 31 39 4 192 178 173 250 168 212 235 228 235 226 234 235 223 242 258 263 274 286 288 274 277 273 276 284 230 203 222 193 160 174 175 177 177 173 170 175 172 174 179 178 180 178 180 182 182 181
331 330 327 326 325 323 322 324 325 325 333 174 79 27 279 235 177 204 356 320 313 243 232 255 255 263 261 255 249 210 96 300 328 307 335 126 151 117 265 119 156 221 245 192 210 65 195 204 232 235 233 248 252 248 225 224 237 244 249 259 272 269 267 278 272 274 269 217 227 189 168 181 181 179 172 176 181 177 175 176 180 179 180 176 180 182 179 176
330 329 328 325 326 323 324 322 322 325 334 357 342 309 263 310 52 54 83 254 263 276 274 258 259 251 268 264 309 210 134 206 252 270 220 113 42 156 146 115 192 200 202 191 190 133 230 267 246 232 224 232 249 242 242 231 233 236 248 254 249 257 260 292 277 54 321 328 262 188 175 189 181 174 178 184 178 177 179 180 179 179 178 176 179 180 178 179
328 327 325 324 324 323 321 323 312 295 247 294 283 249 267 292 62 56 61 223 295 310 218 232 208 237 238 257 224 111 134 233 183 224 251 102 144 187 100 169 199 210 218 198 196 185 203 232 223 224 220 220 229 235 237 238 248 237 229 231 248 259 251 220 282 318 315 303 254 196 144 142 169 174 187 191 181 171 180 180 180 186 186 178 173 175 177 180
324 323 324 323 323 322 319 319 337 355 319 292 200 266 286 292 75 116 98 332 338 276 227 263 182 253 279 332 357 121 240 299 227 203 199 127 166 79 211 233 156 217 219 196 205 216 234 238 231 205 233 240 244 257 248 217 245 260 235 222 238 248 259 265 269 303 348 322 318 127 83 196 197 187 184 175 171 184 181 178 186 185 185 179 180 181 179 181
321 320 321 322 322 327 311 328 346 334 335 283 15 327 337 348 28 94 89 76 339 270 49 236 55 203 51 166 116 131 67 310 263 229 143 189 150 137 72 349 232 265 234 198 199 185 219 236 233 207 202 225 231 241 247 213 235 242 251 213 232 243 248 259 269 289 279 231 273 66 119 248 209 203 189 177 182 183 174 187 187 184 186 187 188 183 178 179
319 319 319 321 324 336 352 360 326 307 336 318 329 331 327 321 25 57 56 345 28 245 165 285 24 330 331 331 96 54 46 275 309 336 54 242 143 5 152 260 339 291 327 350 45 287 208 215 218 232 207 206 219 237 247 225 221 247 251 243 247 260 259 259 260 214 246 227 307 88 129 140 181 230 214 187 182 178 182 191 187 188 188 193 193 185 180 180
319 317 317 322 318 327 216 308 332 336 245 250 309 314 314 310 358 58 80 71 335 219 58 263 275 310 1 271 70 157 194 210 353 286 217 201 95 6 90 215 208 228 283 53 287 249 285 306 272 251 255 216 218 214 227 222 211 231 243 254 258 252 259 265 255 255 245 289 281 42 84 89 208 202 199 189 183 181 190 191 192 191 191 192 194 190 186 182
315 316 318 319 325 300 207 197 203 253 245 282 306 308 314 321 73 104 133 106 81 349 302 147 304 355 292 55 87 250 309 152 158 247 276 37 350 140 102 246 196 299 258 172 233 295 275 158 276 308 253 264 221 222 225 213 224 246 245 256 265 278 276 287 202 225 271 244 267 270 178 142 258 243 181 182 190 189 197 197 197 194 192 191 191 191 186 186
313 316 318 323 327 267 133 232 233 242 280 295 300 308 308 11 38 43 22 62 139 75 277 315 38 209 116 79 313 216 202 250 174 268 343 132 325 19 188 177 135 318 322 5 237 238 255 239 223 251 270 218 265 259 218 220 225 245 234 245 259 280 271 354 82 86 53 229 259 203 240 136 241 227 178 176 193 197 196 199 202 201 199 193 191 190 186 185
314 312 314 322 287 269 331 282 251 245 257 300 316 302 336 38 110 107 72 251 8 299 293 231 254 1 158 130 276 278 139 280 95 122 6 23 2 24 4 8 9 24 23 354 339 308 319 335 14 279 236 289 273 295 300 231 214 224 218 232 276 303 356 346 340 50 228 277 262 227 86 117 141 297 221 196 196 193 183 189 192 193 196 194 193 192 189 185
314 312 312 304 217 280 183 223 251 327 331 332 332 352 58 36 2 86 64 312 71 267 234 254 225 157 175 253 187 170 185 28 14 60 104 93 41 39 15 85 3 7 344 325 320 331 323 302 276 269 272 359 319 309 300 317 33 197 186 68 195 279 331 282 5 285 224 209 246 135 60 21 245 215 202 204 203 201 197 193 188 189 192 193 192 192 189 186
315 312 313 275 194 192 235 250 306 314 323 327 351 43 64 86 67 315 21 326 76 228 315 178 319 51 55 40 35 254 246 105 353 80 105 58 103 72 43 41 347 132 156 288 55 9 286 290 2 319 96 18 33 21 344 339 340 133 194 145 125 197 208 225 273 204 302 297 268 170 128 224 248 271 203 196 199 204 213 214 197 188 188 189 193 191 188 186
313 314 320 186 185 207 236 218 245 302 335 355 44 28 58 65 49 331 56 7 6 305 346 357 328 358 64 101 262 110 40 354 50 344 51 49 49 27 16 25 14 6 75 25 63 319 47 354 330 18 7 329 34 64 304 236 290 268 188 161 171 152 158 204 194 199 213 219 277 38 78 233 153 247 203 193 188 189 201 210 207 206 196 193 191 188 187 185
311 298 237 242 231 238 236 241 245 275 37 11 49 70 75 52 25 343 346 348 327 346 356 333 352 63 330 3 29 44 115 344 360 65 50 70 17 43 12 11 4 12 23 67 328 43 294 245 255 13 265 334 8 335 316 332 332 280 192 85 83 223 143 162 204 150 245 329 324 346 187 193 194 244 255 175 184 195 199 201 190 197 205 204 195 190 190 189
318 320 242 255 204 254 198 218 183 132 68 34 65 43 63 46 57 326 327 268 304 1 334 344 35 40 346 320 357 80 1 112 322 80 80 87 50 46 27 3 9 9 24 90 298 16 359 281 329 318 91 55 358 337 343 13 19 299 32 239 211 194 135 110 330 251 145 57 265 222 321 298 293 317 285 279 165 187 198 195 196 196 199 188 188 191 194 193
360 335 12 303 263 249 216 180 146 108 79 76 79 37 204 52 336 234 319 355 306 330 17 47 9 5 19 4 340 21 12 60 19 74 64 30 46 0 358 11 12 5 18 133 23 182 125 279 313 21 348 36 343 321 208 93 3 356 3 320 284 193 129 122 195 327 91 164 255 285 238 296 19 278 295 280 276 232 174 201 201 201 191 184 191 192 194 193
326 320 252 261 246 244 185 153 115 106 75 56 35 302 310 92 344 62 319 343 358 14 63 51 8 30 38 36 10 349 340 82 314 57 92 27 104 318 13 337 347 10 348 354 119 319 96 326 322 48 19 351 347 357 11 354 35 95 236 277 5 336 347 320 101 252 282 239 264 298 267 279 178 259 306 298 268 269 243 179 200 203 189 189 190 194 196 194
256 358 3 266 252 170 164 137 100 82 60 43 290 48 329 86 274 110 94 26 308 56 56 22 76 15 74 51 327 10 20 39 31 48 83 355 73 323 15 330 344 349 23 29 51 324 30 322 297 353 38 331 3 28 22 335 339 3 5 8 342 285 61 353 197 189 121 245 58 286 22 240 252 260 293 281 277 261 257 206 190 193 189 188 190 194 194 193
1 32 305 268 324 150 98 74 61 51 67 123 271 97 251 82 328 5 55 36 16 34 52 51 27 40 25 71 48 15 348 29 62 41 72 1 117 291 13 346 357 333 53 48 61 2 28 50 291 285 0 26 23 16 41 1 344 341 359 1 8 0 278 247 264 178 177 187 173 175 313 281 340 309 341 334 316 288 277 265 192 195 187 187 190 191 191 190
309 101 277 282 336 78 49 47 38 36 178 266 265 28 36 40 15 13 21 33 31 50 50 73 57 63 10 19 23 15 24 20 60 63 46 68 80 80 350 349 332 9 354 26 42 3 30 15 283 322 344 21 134 50 343 316 289 269 23 44 359 357 9 5 313 328 12 125 209 177 238 256 15 359 351 343 337 337 294 255 199 195 188 190 193 191 188 188
35 35 284 305 319 355 73 11 270 198 129 47 119 329 59 34 51 20 33 17 46 21 7 62 42 72 38 50 28 32 30 31 53 87 24 102 52 93 341 12 46 44 74 56 315 331 120 160 45 315 259 285 287 285 279 268 246 83 63 22 8 359 5 25 341 313 329 306 284 202 207 199 36 13 0 347 346 337 345 309 208 191 188 192 195 189 186 185
30 257 269 298 304 115 65 343 331 14 16 38 98 60 40 64 47 35 44 18 28 2 17 27 28 53 16 48 18 36 30 70 43 57 116 60 65 66 78 53 9 55 81 355 344 335 352 62 344 300 290 276 296 186 116 53 24 15 21 15 6 2 349 335 286 272 277 328 29 345 286 257 345 1 2 346 344 346 8 23 4 208 201 195 187 182 179 185
311 304 320 306 337 70 76 36 346 14 11 21 47 70 76 60 36 40 46 34 22 5 18 17 13 27 51 12 46 40 25 93 43 45 31 9 84 9 30 22 52 55 66 235 116 297 56 327 83 333 345 334 20 2 352 3 44 55 329 342 348 334 337 338 306 345 25 74 24 8 299 323 316 343 354 352 348 6 9 18 31 32 46 55 43 33 359 187
254 249 232 296 355 51 71 350 94 41 32 12 31 24 357 48 27 51 67 43 11 27 17 36 50 54 49 24 60 49 45 52 102 34 64 33 22 9 15 1 12 84 93 103 65 30 88 19 77 73 48 348 338 23 341 333 334 328 334 334 340 347 343 349 15 335 40 309 39 55 272 276 306 326 347 354 354 7 9 14 29 39 38 36 37 57 68 49
18 37 317 342 358 18 33 356 82 80 43 16 29 5 2 53 5 20 37 63 21 44 52 32 21 41 43 37 36 40 32 29 59 25 55 34 350 4 349 6 19 28 59 57 63 80 123 82 107 143 150 192 210 217 233 267 303 316 330 335 328 338 327 328 322 324 332 312 339 250 212 311 325 328 343 7 353 11 11 13 21 25 27 32 34 48 49 50
245 65 354 347 326 23 24 13 42 42 34 26 85 346 35 29 359 11 4 72 13 18 63 43 33 35 15 43 34 32 21 29 25 44 26 48 13 2 330 15 0 30 48 58 60 79 60 29 279 152 192 215 233 236 275 321 319 323 329 329 327 324 319 317 353 289 303 339 316 254 306 328 314 322 333 3 353 8 17 8 16 21 25 25 28 44 46 46
51 289 87 241 152 291 19 4 62 47 34 49 66 24 45 40 31 25 356 29 32 27 34 27 34 33 33 35 30 40 1 41 37 16 352 22 31 358 1 351 29 8 16 34 49 97 118 36 300 2 310 315 332 334 335 332 320 317 319 321 322 318 312 310 302 296 325 269 273 301 319 322 315 341 354 17 13 17 31 21 17 12 15 23 27 32 39 42
76 326 342 334 75 294 289 347 64 67 44 29 83 32 49 43 48 22 26 349 29 32 35 61 27 22 24 26 42 45 24 23 1 358 18 347 6 9 17 337 332 17 23 12 36 43 68 289 278 15 331 337 341 340 334 323 318 321 314 318 320 314 307 303 296 296 289 267 271 280 314 310 314 349 343 329 8 26 42 36 24 15 18 22 25 27 34 35
18 24 325 348 15 285 10 41 25 58 62 18 73 350 42 51 42 22 42 33 31 22 29 58 28 18 21 33 47 65 61 96 18 4 342 14 342 21 339 356 326 345 14 12 349 351 92 299 13 358 360 326 321 333 327 327 328 317 327 317 318 314 308 298 292 279 293 286 284 305 343 313 304 338 25 357 13 22 30 38 35 10 12 27 24 20 27 29
281 228 229 345 5 343 19 47 53 61 54 4 59 337 39 23 49 49 63 32 51 38 30 52 32 20 23 28 42 38 10 24 11 346 307 334 316 328 42 292 10 337 355 353 14 4 78 250 22 142 22 302 316 329 327 327 335 325 320 301 292 310 338 344 331 355 359 315 293 305 353 292 311 341 41 24 29 47 45 40 40 26 14 22 15 16 20 22
315 259 286 124 64 328 39 35 35 53 56 16 22 8 40 43 37 30 55 357 42 54 42 34 47 68 8 28 22 349 348 8 356 334 315 296 292 290 261 276 323 308 319 301 279 290 171 144 57 91 15 259 282 343 332 343 345 333 296 208 287 323 324 332 320 23 9 349 344 117 237 221 290 348 28 14 30 45 47 37 44 37 22 18 20 7 21 18